User: anonymous   Login
Location: Caltech
(34.1382°N, 118.1253°W)
Time: 21:31:14
(UTC-07:00)
Language:

Oscar 10/S400 - Orbit

View from above orbital plane
View from above orbital plane
View from above satellite
View from above satellite

Ground track
Ground track

The orbit data is extracted from the following two-line orbital elements,

1 14129U 83058B   14292.88675517  .00000018  00000-0  00000+0 0  2324
2 14129 026.0463 194.6305 6037599 039.4622 003.3721 02.05868673207801
Epoch (UTC): 19 October 2014 21:16:55
Eccentricity: 0.6037599
inclination: 26.0463°
perigee height: 3964 km
apogee height: 35483 km
right ascension of ascending node: 194.6305°
argument of perigee: 39.4622°
revolutions per day: 2.05868673
mean anomaly at epoch: 3.3721°
orbit number at epoch: 20780

The dashed part of the orbit path shows where the satellite is in the earth's shadow,  

DLR